[[{"header":{"parameterUnit":"m.s-1","parameterCategory":1,"la1":30.2991,"la2":30.254,"lo1":-89.0895,"lo2":-89.0444,"dy":0.0017,"dx":0.0017,"nx":28,"ny":28,"refTime":"2024-05-19T09:00:00:Z","depth":0,"parameterNumber":2,"parameterNumberName":"U-component_of_WINDS"},"data":[0,0,0,0,0,0,0,0,0,0,0,0,0,0,0,0,0,0,0,0,0,0,0,0,0,0,0,0,0,0,0,0,0,0,0,0,0,0,0,0,0,0,0,0,0,0,0,0,0,0,0,0,0,0,0,0,0,0,4.2255,4.2256,0,4.2364,4.2365,4.2366,4.2291,4.2288,4.2284,4.2281,4.2398,4.2404,4.241,0,0,0,0,0,0,0,0,0,0,0,0,0,4.1983,4.1989,4.2254,4.2256,4.2257,4.2364,4.2365,4.2367,4.2292,4.2288,4.2283,4.2279,4.2396,4.2403,4.2411,0,0,0,0,0,0,0,0,0,0,0,0,0,4.2098,4.199,4.2254,4.2232,4.2232,4.2363,4.2365,4.2367,4.2293,4.2287,4.2282,4.2278,4.2393,4.2403,4.2412,4.2573,0,0,4.2441,4.2445,0,0,0,0,0,0,0,0,4.2091,4.2108,4.2234,4.2234,4.2233,4.2308,4.2312,4.2436,4.2294,4.227,4.2281,4.2275,4.2373,4.2384,4.2415,4.2578,4.2583,4.2442,4.2447,4.2451,4.2454,0,0,0,0,0,0,0,4.2084,4.2103,4.2298,4.2236,4.2236,4.2218,4.2229,4.2336,4.2349,4.2271,4.2266,4.228,4.2372,4.2407,4.2418,4.2585,4.2441,4.245,4.2456,4.2459,4.2882,4.2887,0,0,0,0,0,0,4.2077,4.2097,4.2294,4.2301,4.2148,4.2227,4.2239,4.229,4.2347,4.2351,4.2284,4.2276,4.2393,4.2407,4.2421,4.261,4.2451,4.246,4.2466,4.2876,4.2883,4.2889,0,0,0,0,0,0,4.2072,4.2095,4.229,4.2198,4.2221,4.2237,4.2295,4.2295,4.2329,4.2357,4.2359,4.2317,4.2389,4.2408,4.2534,4.2614,4.2464,4.2473,4.287,4.2878,4.2886,4.2992,0,0,0,0,0,0,4.2064,4.2094,4.2155,4.2199,4.2226,4.2401,4.23,4.23,4.2345,4.2336,4.2388,4.2392,4.2387,4.2521,4.2544,4.2624,4.248,4.2863,4.2873,4.2883,4.2981,4.3003,4.3021,0,0,0,0,0,4.2055,4.2182,4.2158,4.2182,4.2302,4.2405,4.2421,4.241,4.2352,4.2413,4.243,4.2391,4.2602,4.2534,4.256,4.2644,4.2858,4.287,4.2883,4.2972,4.2998,4.3021,0,0,0,0,0,0,4.2148,4.2187,4.2161,4.2307,4.2353,4.2392,4.2469,4.2439,4.2504,4.2492,4.2478,4.2491,4.2622,4.2646,4.2571,4.2801,4.272,4.2739,4.278,4.2805,4.2825,4.2815,4.2488,0,0,0,0,0,4.2185,4.2265,4.2295,4.2421,4.2445,4.2453,4.2498,4.2486,4.2534,4.2553,4.258,4.2629,4.2706,4.2757,4.283,4.2985,4.2994,4.3055,4.3075,4.3091,4.3107,4.3187,4.3214,4.293,4.293,4.293,0,0,4.2264,4.2295,4.2346,4.244,4.2474,4.2557,4.247,4.2563,4.2624,4.2568,4.2687,4.2709,4.2763,4.2903,4.2967,4.2927,4.3187,4.3107,4.312,4.3126,4.3203,4.323,4.3253,4.2938,4.2937,4.2936,0,0,4.2448,4.248,4.2586,4.2622,4.2674,4.2678,4.2704,4.2748,4.2759,4.2879,4.2837,4.2911,4.3045,4.3084,4.3121,4.3318,4.3283,4.3343,4.3446,4.3524,4.3547,4.3566,4.3634,4.3659,4.3358,4.3358,4.3359,0,4.2539,4.266,4.2645,4.2739,4.2781,4.2732,4.2839,4.2875,4.295,4.298,4.2934,4.3099,4.3132,4.3279,4.3327,4.336,4.3388,4.3335,4.3545,4.3564,4.3582,4.3646,4.3672,4.3365,4.3364,4.3364,4.3363,0,4.2768,4.2853,4.2933,4.3002,4.3054,4.3154,4.3154,4.3208,4.3191,4.3201,4.3322,4.336,4.3438,4.3473,4.3459,4.3618,4.3591,4.3546,4.3464,4.3616,4.3676,4.3701,4.3374,4.3372,4.337,4.3368,0,0,4.3014,4.3072,4.3101,4.3131,4.3184,4.325,4.3348,4.3422,4.3467,4.3521,4.3601,4.3714,4.3672,4.3714,4.3704,4.3774,4.3923,4.372,4.372,4.3754,4.4098,4.4129,4.4158,4.3901,4.3906,4.391,4.4092,0,4.3198,4.3366,4.3354,4.3513,4.359,4.3545,4.363,4.3672,4.3683,4.3751,4.3764,4.3843,4.3783,4.3807,4.3874,4.3891,4.3992,4.3878,4.3975,4.3979,4.396,4.419,4.4224,4.4394,4.4116,4.412,4.4123,0,4.3435,4.3493,4.3658,4.3697,4.3729,4.3806,4.3871,4.3937,4.3984,4.3987,4.4033,4.4011,4.4109,4.4027,4.4162,4.4085,4.4124,4.4138,4.4145,4.4151,4.4058,4.42,4.4449,4.4473,4.416,4.4157,4.4154,0,4.3593,4.3713,4.3827,4.3854,4.3904,4.3958,4.3981,4.4022,4.4067,4.4125,4.4153,4.4224,4.4262,4.4316,4.4313,4.4254,4.445,4.4368,4.4454,4.4454,4.4495,4.4492,4.4751,4.4526,4.4526,4.4525,4.4524,0,4.3799,4.3901,4.3898,4.3968,4.408,4.4067,4.418,4.4197,4.4234,4.4306,4.4273,4.4342,4.4335,4.4405,4.4404,4.4514,4.4533,4.4537,4.4535,4.4539,4.4537,4.4562,4.4549,4.4532,4.453,4.4529,4.4528,0,4.3994,4.3996,4.4116,4.4152,4.4164,4.4245,4.4276,4.4342,4.435,4.4442,4.4463,4.4476,4.4555,4.4558,4.4651,4.465,4.4784,4.477,4.4767,4.4763,4.4848,4.4839,4.513,4.5166,4.492,4.4923,4.4925,0,4.4123,4.42,4.4243,4.4288,4.4314,4.4388,4.4432,4.4422,4.447,4.4527,4.4586,4.4662,4.4722,4.4852,4.487,4.4941,4.4927,4.5024,4.4937,4.4937,4.4924,4.4918,4.4925,4.504,4.5043,4.5045,4.5047,0,4.4351,4.4348,4.4412,4.4476,4.4529,4.458,4.4627,4.4666,4.4662,4.4717,4.4797,4.4843,4.4936,4.5012,4.508,4.5104,4.5075,4.5074,4.5097,4.51,4.5093,4.5095,4.481,4.5067,4.5065,4.5063,4.5062,4.5061,4.4515,4.458,4.462,4.4692,4.4726,4.477,4.4832,4.4847,4.4913,4.4986,4.4977,4.5065,4.5109,4.5196,4.5226,4.5296,4.5262,4.5297,4.5305,4.5313,4.532,4.5085,4.5309,4.5308,4.5307,4.5307,4.5307,0,4.4738,4.4761,4.4828,4.4893,4.4949,4.4915,4.4965,4.5014,4.5092,4.5134,4.5193,4.5284,4.5357,4.538,4.5451,4.5501,4.5489,4.552,4.5515,4.552,4.5348,4.5319,4.5528,4.5528,4.5528,4.5528,4.5528,4.5528,4.4861,4.4968,4.4969,4.5093,4.5115,4.5199,4.523,4.5271,4.5304,4.5406,4.5465,4.5479,4.5514,4.5586,4.5651,4.5656,4.5682,4.5718,4.5718,4.5555,4.5533,4.5511,4.5484,4.5725,4.5725,4.5884,4.5885,4.5886]},{"header":{"parameterUnit":"m.s-1","parameterCategory":1,"la1":30.2991,"la2":30.254,"lo1":-89.0895,"lo2":-89.0444,"dy":0.0017,"dx":0.0017,"nx":28,"ny":28,"refTime":"2024-05-19T09:00:00:Z","depth":0,"parameterNumber":3,"parameterNumberName":"V-component_of_WINDS"},"data":[0,0,0,0,0,0,0,0,0,0,0,0,0,0,0,0,0,0,0,0,0,0,0,0,0,0,0,0,0,0,0,0,0,0,0,0,0,0,0,0,0,0,0,0,0,0,0,0,0,0,0,0,0,0,0,0,0,0,0.7466,0.7467,0,0.7511,0.7511,0.7512,0.7486,0.7485,0.7484,0.7483,0.753,0.7532,0.7535,0,0,0,0,0,0,0,0,0,0,0,0,0,0.7361,0.7363,0.7466,0.7467,0.7468,0.7511,0.7511,0.7512,0.7487,0.7485,0.7484,0.7482,0.7529,0.7532,0.7535,0,0,0,0,0,0,0,0,0,0,0,0,0,0.7406,0.7364,0.7466,0.746,0.746,0.7511,0.7511,0.7512,0.7487,0.7485,0.7483,0.7481,0.7528,0.7532,0.7535,0.7595,0,0,0.7546,0.7548,0,0,0,0,0,0,0,0,0.7404,0.741,0.746,0.7461,0.746,0.7491,0.7491,0.754,0.7487,0.7477,0.7483,0.748,0.7519,0.7523,0.7535,0.7597,0.7599,0.7547,0.7549,0.755,0.7551,0,0,0,0,0,0,0,0.74,0.7408,0.7484,0.7461,0.7461,0.7455,0.746,0.75,0.7508,0.7478,0.7476,0.7481,0.7518,0.7532,0.7536,0.76,0.7547,0.755,0.7552,0.7553,0.7713,0.7715,0,0,0,0,0,0,0.7398,0.7406,0.7483,0.7485,0.7427,0.7459,0.7464,0.7483,0.7507,0.7509,0.7483,0.748,0.7527,0.7532,0.7538,0.7609,0.755,0.7554,0.7556,0.7711,0.7713,0.7715,0,0,0,0,0,0,0.7395,0.7405,0.7481,0.7445,0.7454,0.7463,0.7485,0.7485,0.7499,0.7511,0.7512,0.7495,0.7525,0.7533,0.7581,0.7611,0.7555,0.7559,0.7708,0.7711,0.7714,0.7753,0,0,0,0,0,0,0.7392,0.7404,0.7427,0.7446,0.7456,0.7523,0.7487,0.7487,0.7505,0.7501,0.7523,0.7525,0.7525,0.7576,0.7584,0.7615,0.7562,0.7706,0.771,0.7713,0.7749,0.7757,0.7763,0,0,0,0,0,0.7389,0.7436,0.7428,0.7438,0.7485,0.7525,0.7531,0.7529,0.7507,0.753,0.7538,0.7524,0.7606,0.7581,0.7591,0.7622,0.7704,0.7708,0.7713,0.7746,0.7755,0.7763,0,0,0,0,0,0,0.7422,0.7439,0.743,0.7485,0.7503,0.752,0.7549,0.7539,0.7564,0.756,0.7557,0.7562,0.7612,0.7622,0.7594,0.7681,0.7651,0.7658,0.7673,0.7682,0.7689,0.7686,0.7565,0,0,0,0,0,0.7435,0.7466,0.7479,0.7527,0.7536,0.7541,0.7559,0.7555,0.7574,0.7582,0.7594,0.7614,0.7643,0.7663,0.7691,0.775,0.7754,0.7776,0.7784,0.779,0.7796,0.7827,0.7837,0.773,0.773,0.773,0,0,0.7464,0.7477,0.7497,0.7534,0.7548,0.7579,0.7548,0.7584,0.7607,0.7588,0.7634,0.7643,0.7664,0.7718,0.7742,0.7728,0.7826,0.7795,0.78,0.7803,0.7832,0.7842,0.7851,0.7734,0.7733,0.7733,0,0,0.7532,0.7545,0.7586,0.76,0.7621,0.7624,0.7634,0.7652,0.7657,0.7703,0.7689,0.7717,0.7769,0.7784,0.7799,0.7872,0.7861,0.7882,0.792,0.795,0.7959,0.7966,0.7992,0.8001,0.7888,0.7888,0.7888,0,0.7566,0.7613,0.7608,0.7644,0.7661,0.7644,0.7685,0.7699,0.7729,0.7741,0.7724,0.7788,0.7801,0.7858,0.7875,0.7888,0.7899,0.7879,0.7958,0.7965,0.7972,0.7997,0.8006,0.789,0.789,0.789,0.7889,0,0.7652,0.7685,0.7715,0.7743,0.7763,0.7802,0.7803,0.7824,0.7818,0.7823,0.7869,0.7885,0.7915,0.7928,0.7924,0.7984,0.7975,0.7958,0.7928,0.7985,0.8008,0.8017,0.7894,0.7893,0.7892,0.7891,0,0,0.7744,0.7768,0.7779,0.7791,0.7813,0.7838,0.7876,0.7905,0.7923,0.7943,0.7975,0.8018,0.8002,0.8019,0.8016,0.8043,0.8099,0.8023,0.8023,0.8036,0.8166,0.8179,0.819,0.8091,0.8093,0.8094,0.8164,0,0.7813,0.7878,0.7875,0.7936,0.7966,0.795,0.7982,0.7999,0.8004,0.8031,0.8036,0.8067,0.8044,0.8054,0.808,0.8087,0.8125,0.8082,0.8121,0.8122,0.8116,0.8202,0.8216,0.8281,0.8173,0.8175,0.8176,0,0.7904,0.7926,0.799,0.8006,0.8019,0.8048,0.8074,0.81,0.8118,0.812,0.8138,0.813,0.8168,0.8137,0.8189,0.816,0.8175,0.8181,0.8184,0.8188,0.8153,0.8208,0.8302,0.8312,0.819,0.8189,0.8188,0,0.7964,0.801,0.8054,0.8065,0.8085,0.8106,0.8116,0.8132,0.815,0.8173,0.8184,0.8211,0.8226,0.8247,0.8247,0.8225,0.83,0.8269,0.8302,0.8303,0.832,0.8319,0.8417,0.8329,0.8329,0.8329,0.8329,0,0.8042,0.8082,0.8081,0.8109,0.8152,0.8148,0.8191,0.8199,0.8213,0.8242,0.8229,0.8256,0.8254,0.8281,0.8282,0.8324,0.8331,0.8334,0.8334,0.8335,0.8335,0.8346,0.8341,0.8332,0.8331,0.833,0.833,0,0.8117,0.8118,0.8165,0.818,0.8184,0.8216,0.8229,0.8254,0.8258,0.8294,0.8302,0.8308,0.8339,0.834,0.8377,0.8377,0.8429,0.8423,0.8423,0.8422,0.8455,0.8452,0.8564,0.8579,0.8481,0.8482,0.8483,0,0.8167,0.8197,0.8214,0.8232,0.8242,0.8271,0.8289,0.8285,0.8304,0.8327,0.835,0.838,0.8403,0.8454,0.8462,0.8489,0.8484,0.8522,0.8488,0.8489,0.8485,0.8483,0.8486,0.8528,0.8529,0.853,0.8531,0,0.8255,0.8254,0.8279,0.8305,0.8326,0.8346,0.8365,0.838,0.8379,0.84,0.8432,0.845,0.8487,0.8517,0.8543,0.8553,0.8542,0.8541,0.855,0.8553,0.8551,0.8552,0.844,0.8539,0.8538,0.8538,0.8537,0.8537,0.8319,0.8345,0.8361,0.8389,0.8403,0.842,0.8445,0.8451,0.8477,0.8506,0.8502,0.8537,0.8554,0.8589,0.8601,0.8628,0.8615,0.8629,0.8632,0.8635,0.8639,0.8546,0.8633,0.8632,0.8632,0.8632,0.8632,0,0.8407,0.8416,0.8442,0.8468,0.8491,0.8477,0.8497,0.8517,0.8547,0.8564,0.8587,0.8623,0.8652,0.8661,0.8689,0.8709,0.8705,0.8716,0.8715,0.8717,0.8649,0.8638,0.8719,0.8719,0.8719,0.8719,0.8719,0.8719,0.8455,0.8498,0.8498,0.8547,0.8556,0.859,0.8602,0.8618,0.8631,0.8672,0.8695,0.8701,0.8714,0.8743,0.8768,0.877,0.8781,0.8795,0.8795,0.8731,0.8722,0.8714,0.8704,0.8797,0.8798,0.8861,0.8862,0.8862]}]]